| time (UTC) | temp C | wind direction | speed KPH | gust KPH | rain 1hr cm | rain 24hr cm | rain mn cm | humidity % | barometer mb |
| 20260903214634 | 26 | 113 | 4.8 | 9.7 | 0.00 | 0.00 | 0.00 | 45 | 1021.2 |
| 20260903213134 | 27 | 156 | 3.2 | 8.0 | 0.00 | 0.00 | 0.00 | 45 | 1021.2 |
| 20260903211634 | 27 | 156 | 4.8 | 4.8 | 0.00 | 0.00 | 0.00 | 45 | 1021.4 |
| 20260903210132 | 27 | 156 | 3.2 | 6.4 | 0.00 | 0.00 | 0.00 | 46 | 1021.6 |
| 20260903204630 | 27 | 218 | 3.2 | 4.8 | 0.00 | 0.00 | 0.00 | 45 | 1021.4 |
| 20260903203128 | 27 | 218 | 1.6 | 3.2 | 0.00 | 0.00 | 0.00 | 45 | 1021.4 |
| 20260903201629 | 27 | 218 | 0.0 | 1.6 | 0.00 | 0.00 | 0.00 | 46 | 1021.3 |
| 20260903200128 | 28 | 218 | 0.0 | 3.2 | 0.00 | 0.00 | 0.00 | 45 | 1021.1 |
| 20260903194622 | 28 | 218 | 3.2 | 4.8 | 0.00 | 0.00 | 0.00 | 42 | 1020.9 |
| 20260903193122 | 28 | 218 | 0.0 | 4.8 | 0.00 | 0.00 | 0.00 | 41 | 1020.8 |
| 20260903191620 | 29 | 218 | 3.2 | 6.4 | 0.00 | 0.00 | 0.00 | 40 | 1020.7 |
| 20260903190118 | 30 | 218 | 4.8 | 8.0 | 0.00 | 0.00 | 0.00 | 38 | 1020.6 |
| 20260903184616 | 30 | 218 | 4.8 | 8.0 | 0.00 | 0.00 | 0.00 | 37 | 1020.6 |
| 20260903183114 | 31 | 218 | 6.4 | 9.7 | 0.00 | 0.00 | 0.00 | 36 | 1020.5 |
| 20260903182320 | 32 | 229 | 4.8 | 11.3 | 0.00 | 0.00 | 0.00 | 36 | 1020.6 |
| 20260903180112 | 33 | 267 | 3.2 | 6.4 | 0.00 | 0.00 | 0.00 | 35 | 1020.6 |
| 20260903174610 | 33 | 267 | 3.2 | 9.7 | 0.00 | 0.00 | 0.00 | 35 | 1020.6 |
| 20260903173805 | 33 | 246 | 8.0 | 14.5 | 0.00 | 0.00 | 0.00 | 35 | 1020.8 |
| 20260903171609 | 33 | 292 | 9.7 | 16.1 | 0.00 | 0.00 | 0.00 | 34 | 1020.9 |
| 20260903170107 | 33 | 237 | 9.7 | 19.3 | 0.00 | 0.00 | 0.00 | 35 | 1020.8 |
| 20260903164605 | 33 | 246 | 11.3 | 19.3 | 0.00 | 0.00 | 0.00 | 35 | 1020.8 |
| 20260903163106 | 33 | 253 | 12.9 | 20.9 | 0.00 | 0.00 | 0.00 | 35 | 1020.8 |
| 20260903161605 | 33 | 229 | 14.5 | 22.5 | 0.00 | 0.00 | 0.00 | 34 | 1020.8 |
| 20260903160106 | 33 | 240 | 14.5 | 22.5 | 0.00 | 0.00 | 0.00 | 34 | 1020.8 |
| 20260903154606 | 33 | 230 | 14.5 | 24.1 | 0.00 | 0.00 | 0.00 | 35 | 1020.8 |
| 20260903153104 | 34 | 242 | 16.1 | 24.1 | 0.00 | 0.00 | 0.00 | 35 | 1020.9 |
| 20260903151603 | 35 | 231 | 16.1 | 27.4 | 0.00 | 0.00 | 0.00 | 36 | 1021.0 |
| 20260903150103 | 35 | 241 | 16.1 | 25.7 | 0.00 | 0.00 | 0.00 | 36 | 1021.1 |
| 20260903144603 | 36 | 292 | 11.3 | 22.5 | 0.00 | 0.00 | 0.00 | 28 | 1021.2 |
| 20260903143104 | 36 | 257 | 9.7 | 19.3 | 0.00 | 0.00 | 0.00 | 24 | 1021.2 |
| 20260903142300 | 36 | 246 | 8.0 | 17.7 | 0.00 | 0.00 | 0.00 | 25 | 1021.4 |
| 20260903134601 | 35 | 246 | 3.2 | 11.3 | 0.00 | 0.00 | 0.00 | 28 | 1021.3 |
| 20260903133101 | 34 | 246 | 4.8 | 14.5 | 0.00 | 0.00 | 0.00 | 28 | 1021.3 |
| 20260903131600 | 34 | 289 | 4.8 | 14.5 | 0.00 | 0.00 | 0.00 | 28 | 1021.4 |
| 20260903130059 | 33 | 187 | 6.4 | 12.9 | 0.00 | 0.00 | 0.00 | 30 | 1021.4 |
| 20260903124557 | 33 | 159 | 4.8 | 12.9 | 0.00 | 0.00 | 0.00 | 31 | 1021.4 |
| 20260903123055 | 33 | 111 | 6.4 | 12.9 | 0.00 | 0.00 | 0.00 | 30 | 1021.4 |
| 20260903121554 | 33 | 133 | 6.4 | 12.9 | 0.00 | 0.00 | 0.00 | 36 | 1021.6 |
| 20260903120053 | 32 | 128 | 8.0 | 17.7 | 0.00 | 0.00 | 0.00 | 36 | 1021.6 |
| 20260903115950 | 32 | 93 | 8.0 | 14.5 | 0.00 | 0.00 | 0.00 | 35 | 1021.8 |
| 20260903113053 | 33 | 149 | 11.3 | 16.1 | 0.00 | 0.00 | 0.00 | 34 | 1021.9 |
| 20260903111553 | 33 | 115 | 8.0 | 16.1 | 0.00 | 0.00 | 0.00 | 35 | 1022.0 |
| 20260903110053 | 32 | 90 | 6.4 | 16.1 | 0.00 | 0.00 | 0.00 | 36 | 1022.0 |
| 20260903105306 | 32 | 135 | 8.0 | 16.1 | 0.00 | 0.00 | 0.00 | 37 | 1022.0 |
| 20260903103746 | 31 | 93 | 8.0 | 16.1 | 0.00 | 0.00 | 0.00 | 37 | 1022.0 |
| 20260903101557 | 31 | 76 | 11.3 | 20.9 | 0.00 | 0.00 | 0.00 | 37 | 1022.0 |
| 20260903100052 | 30 | 85 | 11.3 | 19.3 | 0.00 | 0.00 | 0.00 | 39 | 1021.9 |
| 20260903094552 | 30 | 112 | 11.3 | 19.3 | 0.00 | 0.00 | 0.00 | 38 | 1021.9 |
| 20260903093052 | 29 | 84 | 12.9 | 19.3 | 0.00 | 0.00 | 0.00 | 37 | 1021.7 |
| 20260903091550 | 28 | 84 | 12.9 | 19.3 | 0.00 | 0.00 | 0.00 | 37 | 1021.7 |
| 20260903090048 | 28 | 95 | 14.5 | 19.3 | 0.00 | 0.00 | 0.00 | 38 | 1021.7 |
| 20260903084549 | 27 | 74 | 14.5 | 24.1 | 0.00 | 0.00 | 0.00 | 38 | 1021.7 |
| 20260903083049 | 27 | 73 | 19.3 | 29.0 | 0.00 | 0.00 | 0.00 | 38 | 1021.7 |
| 20260903081549 | 27 | 86 | 14.5 | 22.5 | 0.00 | 0.00 | 0.00 | 39 | 1021.7 |
| 20260903080049 | 27 | 105 | 14.5 | 24.1 | 0.00 | 0.00 | 0.00 | 39 | 1021.7 |
| 20260903074549 | 26 | 98 | 16.1 | 20.9 | 0.00 | 0.00 | 0.00 | 39 | 1021.6 |
| 20260903073048 | 26 | 96 | 12.9 | 19.3 | 0.00 | 0.00 | 0.00 | 40 | 1021.6 |
| 20260903071543 | 26 | 118 | 14.5 | 20.9 | 0.00 | 0.00 | 0.00 | 40 | 1021.4 |
| 20260903070043 | 25 | 100 | 14.5 | 22.5 | 0.00 | 0.00 | 0.00 | 40 | 1021.3 |
| 20260903064543 | 25 | 86 | 11.3 | 19.3 | 0.00 | 0.00 | 0.00 | 40 | 1021.2 |
| 20260903063042 | 25 | 111 | 9.7 | 16.1 | 0.00 | 0.00 | 0.00 | 41 | 1021.1 |
| 20260903062241 | 25 | 117 | 8.0 | 14.5 | 0.00 | 0.00 | 0.00 | 41 | 1020.9 |
| 20260903060043 | 25 | 125 | 6.4 | 12.9 | 0.00 | 0.00 | 0.00 | 41 | 1020.7 |
| 20260903054542 | 25 | 101 | 8.0 | 14.5 | 0.00 | 0.00 | 0.00 | 40 | 1020.6 |
| 20260903053042 | 25 | 135 | 9.7 | 20.9 | 0.00 | 0.00 | 0.00 | 39 | 1020.6 |
| 20260903051543 | 26 | 98 | 12.9 | 20.9 | 0.00 | 0.00 | 0.00 | 38 | 1020.5 |
| 20260903050041 | 25 | 105 | 12.9 | 19.3 | 0.00 | 0.00 | 0.00 | 39 | 1020.3 |
| 20260903044537 | 25 | 98 | 4.8 | 11.3 | 0.00 | 0.00 | 0.00 | 40 | 1020.3 |
| 20260903043037 | 25 | 124 | 6.4 | 12.9 | 0.00 | 0.00 | 0.00 | 38 | 1020.3 |
| 20260903041537 | 25 | 117 | 8.0 | 17.7 | 0.00 | 0.00 | 0.00 | 37 | 1020.3 |
| 20260903040036 | 26 | 147 | 9.7 | 17.7 | 0.00 | 0.00 | 0.00 | 37 | 1020.3 |
| 20260903034537 | 26 | 90 | 12.9 | 20.9 | 0.00 | 0.00 | 0.00 | 37 | 1020.4 |
| 20260903033036 | 25 | 101 | 12.9 | 20.9 | 0.00 | 0.00 | 0.00 | 38 | 1020.3 |
| 20260903031530 | 25 | 98 | 12.9 | 20.9 | 0.00 | 0.00 | 0.00 | 39 | 1020.4 |
| 20260903030031 | 25 | 65 | 8.0 | 17.7 | 0.00 | 0.00 | 0.00 | 41 | 1020.4 |
| 20260903024531 | 25 | 82 | 4.8 | 12.9 | 0.00 | 0.00 | 0.00 | 41 | 1020.5 |
| 20260903023725 | 25 | 99 | 6.4 | 14.5 | 0.00 | 0.00 | 0.00 | 41 | 1020.5 |
| 20260903022219 | 25 | 77 | 9.7 | 14.5 | 0.00 | 0.00 | 0.00 | 41 | 1020.5 |
| 20260903020031 | 25 | 106 | 9.7 | 12.9 | 0.00 | 0.00 | 0.00 | 42 | 1020.6 |
| 20260903014527 | 25 | 126 | 8.0 | 14.5 | 0.00 | 0.00 | 0.00 | 43 | 1020.7 |
| 20260903013718 | 25 | 92 | 8.0 | 14.5 | 0.00 | 0.00 | 0.00 | 46 | 1020.8 |
| 20260903011524 | 23 | 94 | 6.4 | 12.9 | 0.00 | 0.00 | 0.00 | 51 | 1020.8 |
| 20260903010024 | 23 | 128 | 4.8 | 11.3 | 0.00 | 0.00 | 0.00 | 60 | 1021.0 |
| 20260903004524 | 24 | 128 | 3.2 | 8.0 | 0.00 | 0.00 | 0.00 | 56 | 1021.0 |
| 20260903004409 | 24 | 128 | 6.4 | 11.3 | 0.00 | 0.00 | 0.00 | 55 | 1021.0 |
| 20260903001524 | 24 | 128 | 4.8 | 8.0 | 0.00 | 0.00 | 0.00 | 56 | 1021.1 |
| 20260903000024 | 25 | 130 | 6.4 | 12.9 | 0.00 | 0.00 | 0.00 | 56 | 1021.1 |
| 20260902234522 | 25 | 109 | 6.4 | 12.9 | 0.00 | 0.00 | 0.00 | 55 | 1021.1 |
| 20260902233022 | 25 | 132 | 9.7 | 16.1 | 0.00 | 0.00 | 0.00 | 54 | 1021.3 |
| 20260902231522 | 24 | 90 | 6.4 | 16.1 | 0.00 | 0.00 | 0.00 | 57 | 1021.1 |
| 20260902230023 | 23 | 110 | 3.2 | 6.4 | 0.00 | 0.00 | 0.00 | 61 | 1021.0 |
| 20260902224520 | 24 | 110 | 3.2 | 6.4 | 0.00 | 0.00 | 0.00 | 60 | 1021.0 |
| 20260902223019 | 24 | 110 | 3.2 | 6.4 | 0.00 | 0.00 | 0.00 | 58 | 1021.0 |
| 20260902221518 | 24 | 110 | 3.2 | 6.4 | 0.00 | 0.00 | 0.00 | 59 | 1021.0 |
| 20260902220018 | 24 | 110 | 4.8 | 9.7 | 0.00 | 0.00 | 0.00 | 61 | 1021.1 |